EN

Hourly Weather Tongling

Today, 13 April, Tuesday

Time Temperature Precipitation Wind Pressure Humidity
00:00 +18°C° 0 mm 1 mps 762 mmHg 87%
01:00 +16°C° 0 mm 1 mps 762 mmHg 87%
02:00 +15°C° 0 mm 0 mps 762 mmHg 87%
03:00 +15°C° 0 mm 0 mps 762 mmHg 87%
04:00 +16°C° 0 mm 1 mps 762 mmHg 86%
05:00 +16°C° 0 mm 1 mps 762 mmHg 85%
06:00 +18°C° 0 mm 1 mps 762 mmHg 81%
07:00 +19°C° 0 mm 1 mps 763 mmHg 77%
08:00 +20°C° 0 mm 1 mps 763 mmHg 76%
09:00 +20°C° 0 mm 2 mps 763 mmHg 71%
10:00 +21°C° 0 mm 3 mps 763 mmHg 65%
11:00 +23°C° 0 mm 4 mps 763 mmHg 60%
12:00 +23°C° 0 mm 4 mps 762 mmHg 58%
13:00 +23°C° 0 mm 4 mps 762 mmHg 56%
14:00 +25°C° 0 mm 4 mps 761 mmHg 55%
15:00 +23°C° 0.1 mm 4 mps 761 mmHg 61%
16:00 +22°C° 0.1 mm 4 mps 761 mmHg 67%
17:00 +21°C° 0.1 mm 4 mps 761 mmHg 73%
18:00 +20°C° 0 mm 5 mps 762 mmHg 76%
19:00 +19°C° 0 mm 5 mps 762 mmHg 79%
20:00 +17°C° 0 mm 6 mps 762 mmHg 84%
21:00 +16°C° 0.1 mm 5 mps 763 mmHg 86%
22:00 +16°C° 0.1 mm 5 mps 763 mmHg 88%
23:00 +15°C° 0.1 mm 5 mps 763 mmHg 90%

Tomorrow, 14 April, Wednesday

Time Temperature Precipitation Wind Pressure Humidity
00:00 +14°C° 0.4 mm 5 mps 763 mmHg 90%
01:00 +14°C° 0.4 mm 5 mps 763 mmHg 91%
02:00 +13°C° 0.4 mm 5 mps 763 mmHg 92%
03:00 +13°C° 0 mm 5 mps 763 mmHg 91%
04:00 +13°C° 0 mm 4 mps 763 mmHg 91%
05:00 +12°C° 0 mm 4 mps 763 mmHg 91%
06:00 +13°C° 0 mm 5 mps 764 mmHg 89%
07:00 +13°C° 0 mm 5 mps 764 mmHg 87%
08:00 +13°C° 0 mm 6 mps 764 mmHg 85%
09:00 +14°C° 0 mm 6 mps 764 mmHg 82%
10:00 +15°C° 0 mm 6 mps 764 mmHg 79%
11:00 +16°C° 0 mm 6 mps 765 mmHg 75%
12:00 +16°C° 0 mm 6 mps 764 mmHg 73%
13:00 +17°C° 0 mm 6 mps 763 mmHg 70%
14:00 +17°C° 0 mm 5 mps 763 mmHg 68%
15:00 +17°C° 0 mm 5 mps 762 mmHg 70%
16:00 +17°C° 0 mm 5 mps 762 mmHg 71%
17:00 +16°C° 0 mm 5 mps 761 mmHg 73%
18:00 +15°C° 0 mm 5 mps 762 mmHg 74%
19:00 +14°C° 0 mm 4 mps 762 mmHg 75%
20:00 +13°C° 0 mm 3 mps 762 mmHg 76%
21:00 +13°C° 0 mm 3 mps 762 mmHg 78%
22:00 +12°C° 0 mm 3 mps 762 mmHg 79%
23:00 +13°C° 0 mm 2 mps 762 mmHg 80%

Day after tomorrow, 15 April, Thursday

Time Temperature Precipitation Wind Pressure Humidity
00:00 +13°C° 0 mm 2 mps 762 mmHg 80%
01:00 +13°C° 0 mm 2 mps 761 mmHg 79%
02:00 +13°C° 0 mm 2 mps 761 mmHg 79%
03:00 +13°C° 0 mm 1 mps 761 mmHg 80%
04:00 +13°C° 0 mm 1 mps 760 mmHg 81%
05:00 +13°C° 0 mm 1 mps 760 mmHg 82%
06:00 +16°C° 0 mm 1 mps 761 mmHg 78%
07:00 +14°C° 0 mm 0 mps 761 mmHg 79%
08:00 +13°C° 0 mm 0 mps 761 mmHg 80%
09:00 +13°C° 0 mm 0 mps 761 mmHg 80%
10:00 +14°C° 0 mm 0 mps 761 mmHg 79%
11:00 +14°C° 0 mm 0 mps 761 mmHg 79%
12:00 +19°C° 0 mm 2 mps 761 mmHg 70%
13:00 +20°C° 0 mm 2 mps 760 mmHg 66%
14:00 +21°C° 0 mm 2 mps 760 mmHg 62%
15:00 +21°C° 0 mm 2 mps 759 mmHg 63%
16:00 +21°C° 0 mm 2 mps 759 mmHg 63%
17:00 +21°C° 0 mm 2 mps 759 mmHg 64%
18:00 +16°C° 0 mm 1 mps 761 mmHg 78%
19:00 +18°C° 0 mm 1 mps 761 mmHg 77%
20:00 +19°C° 0 mm 1 mps 761 mmHg 75%
21:00 +19°C° 0 mm 1 mps 761 mmHg 78%
22:00 +18°C° 0 mm 2 mps 761 mmHg 80%
23:00 +18°C° 0 mm 2 mps 761 mmHg 82%

16 April, Friday

Time Temperature Precipitation Wind Pressure Humidity
00:00 +17°C° 0 mm 2 mps 761 mmHg 85%
01:00 +17°C° 0 mm 2 mps 761 mmHg 87%
02:00 +16°C° 0 mm 2 mps 761 mmHg 90%
03:00 +16°C° 0 mm 2 mps 761 mmHg 90%
04:00 +16°C° 0 mm 2 mps 762 mmHg 91%
05:00 +15°C° 0 mm 2 mps 762 mmHg 91%
06:00 +16°C° 0 mm 2 mps 762 mmHg 79%
07:00 +16°C° 0 mm 2 mps 763 mmHg 67%
08:00 +17°C° 0 mm 3 mps 764 mmHg 56%
09:00 +18°C° 0 mm 2 mps 764 mmHg 50%
10:00 +19°C° 0 mm 2 mps 764 mmHg 45%
11:00 +20°C° 0 mm 2 mps 764 mmHg 40%
12:00 +20°C° 0 mm 2 mps 764 mmHg 36%
13:00 +21°C° 0 mm 2 mps 763 mmHg 33%
14:00 +23°C° 0 mm 1 mps 763 mmHg 30%
15:00 +23°C° 0 mm 1 mps 763 mmHg 33%
16:00 +23°C° 0 mm 1 mps 763 mmHg 37%
17:00 +22°C° 0 mm 1 mps 763 mmHg 40%
18:00 +21°C° 0 mm 1 mps 763 mmHg 41%
19:00 +20°C° 0 mm 1 mps 763 mmHg 41%
20:00 +19°C° 0 mm 1 mps 764 mmHg 42%
21:00 +18°C° 0 mm 1 mps 764 mmHg 43%
22:00 +16°C° 0 mm 1 mps 764 mmHg 45%
23:00 +16°C° 0 mm 2 mps 765 mmHg 46%

17 April, Saturday

Time Temperature Precipitation Wind Pressure Humidity
00:00 +15°C° 0 mm 2 mps 764 mmHg 48%
01:00 +15°C° 0 mm 2 mps 764 mmHg 50%
02:00 +14°C° 0 mm 2 mps 764 mmHg 52%
03:00 +14°C° 0 mm 2 mps 764 mmHg 54%
04:00 +13°C° 0 mm 2 mps 765 mmHg 57%
05:00 +13°C° 0 mm 2 mps 765 mmHg 59%
06:00 +14°C° 0 mm 2 mps 766 mmHg 58%
07:00 +15°C° 0 mm 2 mps 766 mmHg 57%
08:00 +16°C° 0 mm 2 mps 767 mmHg 56%
09:00 +18°C° 0 mm 2 mps 767 mmHg 49%
10:00 +19°C° 0 mm 3 mps 768 mmHg 41%
11:00 +20°C° 0 mm 4 mps 768 mmHg 34%
12:00 +21°C° 0 mm 4 mps 767 mmHg 33%
13:00 +21°C° 0 mm 4 mps 767 mmHg 31%
14:00 +22°C° 0 mm 4 mps 766 mmHg 29%
15:00 +21°C° 0 mm 3 mps 766 mmHg 31%
16:00 +21°C° 0 mm 3 mps 766 mmHg 33%
17:00 +21°C° 0 mm 2 mps 766 mmHg 35%
18:00 +19°C° 0 mm 2 mps 766 mmHg 38%
19:00 +17°C° 0 mm 2 mps 766 mmHg 40%
20:00 +15°C° 0 mm 1 mps 767 mmHg 42%
21:00 +15°C° 0 mm 1 mps 767 mmHg 45%
22:00 +14°C° 0 mm 1 mps 767 mmHg 48%
23:00 +14°C° 0 mm 1 mps 767 mmHg 50%

18 April, Sunday

Time Temperature Precipitation Wind Pressure Humidity
00:00 +13°C° 0 mm 1 mps 766 mmHg 52%
01:00 +13°C° 0 mm 1 mps 766 mmHg 53%
02:00 +12°C° 0 mm 1 mps 766 mmHg 55%
03:00 +12°C° 0 mm 1 mps 766 mmHg 56%
04:00 +11°C° 0 mm 1 mps 766 mmHg 56%
05:00 +10°C° 0 mm 2 mps 766 mmHg 57%
06:00 +12°C° 0 mm 2 mps 766 mmHg 55%
07:00 +14°C° 0 mm 2 mps 766 mmHg 53%
08:00 +15°C° 0 mm 2 mps 766 mmHg 51%
09:00 +17°C° 0 mm 3 mps 765 mmHg 46%
10:00 +19°C° 0 mm 4 mps 765 mmHg 41%
11:00 +21°C° 0 mm 4 mps 765 mmHg 36%
12:00 +21°C° 0 mm 4 mps 764 mmHg 35%
13:00 +22°C° 0 mm 4 mps 763 mmHg 33%
14:00 +23°C° 0 mm 4 mps 762 mmHg 31%
15:00 +23°C° 0 mm 4 mps 761 mmHg 36%
16:00 +22°C° 0 mm 3 mps 761 mmHg 40%
17:00 +22°C° 0 mm 3 mps 760 mmHg 45%
18:00 +20°C° 0 mm 3 mps 761 mmHg 48%
19:00 +19°C° 0 mm 2 mps 761 mmHg 51%
20:00 +18°C° 0 mm 2 mps 762 mmHg 54%
21:00 +18°C° 0 mm 2 mps 762 mmHg 55%
22:00 +17°C° 0 mm 2 mps 761 mmHg 57%
23:00 +17°C° 0 mm 2 mps 761 mmHg 58%
Show more

We Need Your Consent

Meteoprog and our Service Providers may store and access personal data such as cookies, device identifiers or other similar technologies on your device and process such data to personalise content and ads, as well as provide social media features and to analyse the traffic.

  • Store and/or access information on your device

    Cookies, device identifiers or other information can be stored or accessed on your device for the purposes indicated above.

  • Personalised ads and content, ad and content measurement, audience insights, and products development

    Ads and content can be personalised based on a profile. More data can be added to better personalise ads and content. Ad and content performance can be measured. Insights about the audience who saw the ads and content can be derived. Such data can be used to develop or improve user’s experience, systems and software.

By clicking ‘I Agree’ you will allow the use of indicated cookies, device identifiers, web beacons or other similar technologies. Your settings can be changed in the browser on your device.

For certain purposes, legitimate interests may be relied on, rather than consent. You can read more about this in our Privacy and Cookie Policy.